1483614000.74,2425,7.38,71674.5,-15.89,-28.25,-28.25,0,*54
1483614002.0,2426,7.38,71660.8,-15.91,-28.59,-28.59,0,*5E
1483614003.27,2427,7.31,71670.3,-15.89,-28.37,-28.25,0,*55
1483614004.48,2428,7.38,71670.0,-15.91,-28.69,-28.85,0,*52
1483614005.75,2429,7.38,71668.3,-15.91,-28.21,-28.21,0,*51
1483614006.96,2430,7.38,71670.5,-15.91,-27.89,-27.71,0,*5E
1483614008.22,2431,7.38,71664.8,-15.89,-28.05,-27.89,0,*5A
1483614009.46,2432,7.38,71666.8,-15.91,-27.89,-27.83,0,*51
1483614010.67,2433,7.38,71664.8,-15.91,-27.89,-27.55,0,*5B
1483614011.91,2434,7.38,71664.0,-15.91,-28.37,-28.21,0,*5A
1483614013.14,2435,7.38,71662.8,-15.91,-27.99,-27.71,0,*5A
1483614014.38,2436,7.38,71660.3,-15.91,-28.21,-27.89,0,*52
1483614015.62,2437,7.38,71664.0,-15.91,-27.83,-27.67,0,*54
1483614016.86,2438,7.38,71658.8,-15.91,-28.37,-28.25,0,*52
1483614018.12,2439,7.38,71666.0,-15.89,-28.05,-27.89,0,*52
1483614019.41,2440,7.38,71666.8,-15.89,-28.09,-27.99,0,*51
1483614020.67,2441,7.38,71668.3,-15.89,-28.05,-27.89,0,*5D
1483614021.93,2442,7.38,71672.3,-15.91,-27.99,-27.83,0,*57
1483614023.14,2443,7.38,71670.8,-15.91,-27.89,-27.55,0,*5C
1483614024.35,2444,7.38,71670.8,-15.91,-27.71,-27.55,0,*5C
1483614025.58,2445,7.38,71670.0,-15.91,-27.89,-27.83,0,*51
1483614026.8,2446,7.38,71674.3,-15.91,-27.67,-27.67,0,*58
1483614028.06,2447,7.38,71670.3,-15.89,-27.99,-27.71,0,*56
1483614029.27,2448,7.38,71672.3,-15.91,-27.89,-27.71,0,*51
1483614030.48,2449,7.38,71668.8,-15.91,-27.89,-27.71,0,*50
1483614031.72,2450,7.38,71670.3,-15.91,-28.25,-28.37,0,*5C
1483614033.0,2451,7.38,71670.0,-15.89,-27.99,-27.83,0,*5C
1483614034.26,2452,7.38,71670.5,-15.91,-28.25,-28.09,0,*53
1483614035.47,2453,7.38,71670.0,-15.91,-27.89,-27.71,0,*5B
1483614036.71,2454,7.38,71670.8,-15.91,-27.99,-27.67,0,*5A
1483614037.98,2455,7.38,71664.0,-15.91,-28.25,-28.21,0,*5E
1483614039.24,2456,7.38,71672.3,-15.93,-28.09,-27.93,0,*57
1483614040.51,2457,7.38,71676.8,-15.93,-27.77,-27.61,0,*5D
1483614041.77,2458,7.38,71676.5,-15.93,-27.89,-27.61,0,*53
1483614043.0,2459,7.38,71674.8,-15.93,-27.89,-27.77,0,*55
1483614044.26,2460,7.38,71676.3,-15.93,-28.09,-27.77,0,*58
1483614045.5,2461,7.38,71676.8,-15.93,-27.71,-27.55,0,*59
1483614046.79,2462,7.38,71666.0,-15.93,-28.05,-27.61,0,*51
1483614048.0,2463,7.38,71668.8,-15.91,-27.71,-27.55,0,*59
1483614049.22,2464,7.38,71672.0,-15.91,-27.71,-27.67,0,*5F
1483614050.48,2465,7.38,71666.8,-15.91,-27.99,-27.83,0,*52
1483614051.69,2466,7.38,71668.5,-15.91,-27.55,-27.51,0,*5E
1483614052.95,2467,7.38,71666.8,-15.89,-27.67,-27.39,0,*59
1483614054.16,2468,7.38,71666.3,-15.91,-27.89,-27.67,0,*54
1483614055.37,2469,7.38,71668.5,-15.91,-27.71,-27.51,0,*57
1483614056.58,2470,7.38,71670.0,-15.91,-27.51,-27.67,0,*58
1483614057.8,2471,7.38,71666.5,-15.91,-27.67,-27.67,0,*5C
1483614059.01,2472,7.38,71664.5,-15.91,-27.55,-27.55,0,*5F
1483614060.27,2473,7.38,71662.8,-15.91,-27.35,-27.39,0,*52
1483614061.48,2474,7.38,71664.0,-15.91,-27.71,-27.67,0,*5E
1483614062.72,2475,7.38,71666.5,-15.89,-27.51,-27.67,0,*54
1483614063.95,2476,7.38,71662.8,-15.91,-27.71,-27.83,0,*56
1483614065.17,2477,7.38,71666.5,-15.91,-27.67,-27.55,0,*5B
1483614066.38,2478,7.38,71670.3,-15.91,-27.67,-27.71,0,*52
1483614067.61,2479,7.38,71668.3,-15.89,-27.55,-27.55,0,*5D
1483614068.89,2480,7.38,71668.5,-15.89,-27.35,-27.35,0,*5B
1483614070.11,2481,7.38,71672.3,-15.91,-27.67,-27.67,0,*53
1483614071.34,2482,7.38,71668.0,-15.89,-27.55,-27.51,0,*5D
1483614072.6,2483,7.38,71670.0,-15.91,-27.35,-27.39,0,*5D
1483614073.81,2484,7.38,71662.8,-15.91,-27.71,-27.55,0,*50
1483614075.02,2485,7.38,71668.8,-15.91,-27.55,-27.55,0,*57
1483614076.23,2486,7.38,71664.8,-15.91,-27.67,-27.67,0,*54
1483614077.49,2487,7.38,71662.0,-15.89,-27.99,-27.71,0,*5A
1483614078.72,2488,7.38,71664.8,-15.89,-27.67,-27.51,0,*56
1483614079.95,2489,7.38,71670.0,-15.89,-27.55,-27.55,0,*52
1483614081.21,2490,7.38,71664.0,-15.89,-27.83,-27.55,0,*51
1483614082.44,2491,7.38,71668.3,-15.89,-27.71,-27.67,0,*5C
1483614083.68,2492,7.38,71670.8,-15.89,-27.89,-27.67,0,*58
1483614084.89,2493,7.38,71666.3,-15.91,-27.71,-27.67,0,*57
1483614086.12,2494,7.38,71660.5,-15.89,-27.89,-27.71,0,*59
1483614087.33,2495,7.38,71660.3,-15.91,-27.89,-27.71,0,*51
1483614088.56,2496,7.38,71662.0,-15.89,-27.67,-27.71,0,*5B
1483614089.82,2497,7.38,71666.8,-15.91,-27.83,-27.83,0,*54
1483614091.05,2498,7.38,71668.5,-15.89,-27.55,-27.67,0,*53
1483614092.29,2499,7.38,71664.8,-15.89,-27.71,-27.71,0,*53
1483614093.52,2500,7.38,71666.8,-15.89,-27.67,-27.67,0,*52
1483614094.76,2501,7.38,71666.8,-15.89,-27.67,-27.67,0,*53
1483614095.97,2502,7.38,71664.5,-15.91,-27.67,-27.55,0,*58
1483614097.21,2503,7.38,71666.5,-15.89,-27.51,-27.51,0,*51
1483614098.45,2504,7.38,71668.8,-15.91,-28.05,-27.89,0,*54
1483614099.69,2505,7.38,71668.5,-15.91,-28.05,-27.89,0,*55
1483614100.93,2506,7.38,71670.0,-15.91,-28.09,-27.89,0,*5A
1483614102.19,2507,7.38,71672.5,-15.91,-27.99,-27.83,0,*57
1483614103.4,2508,7.38,71666.0,-15.91,-27.71,-27.55,0,*55
1483614104.63,2509,7.38,71666.0,-15.93,-27.89,-27.77,0,*51
1483614105.9,2510,7.38,71668.8,-15.93,-27.61,-27.55,0,*5F
1483614107.11,2511,7.38,71660.0,-15.91,-27.71,-27.55,0,*5D
1483614108.32,2512,7.38,71664.0,-15.91,-27.71,-27.51,0,*5A
1483614109.56,2513,7.38,71666.0,-15.91,-27.99,-27.71,0,*5F
1483614110.82,2514,7.38,71658.3,-15.91,-28.09,-27.99,0,*58
1483614112.06,2515,7.38,71656.8,-15.91,-28.09,-27.89,0,*58
1483614113.27,2516,7.38,71662.0,-15.91,-27.89,-27.71,0,*5B
1483614114.5,2517,7.38,71660.3,-15.91,-27.99,-27.55,0,*5D
1483614115.72,2518,7.38,71652.5,-15.91,-27.89,-27.67,0,*52
1483614116.98,2519,7.38,71662.5,-15.91,-28.05,-27.83,0,*52
1483614118.19,2520,7.38,71658.5,-15.91,-27.67,-27.71,0,*5E
1483614119.41,2521,7.38,71654.8,-15.91,-27.67,-27.67,0,*58
1483614120.65,2522,7.38,71656.3,-15.91,-27.39,-27.55,0,*51
1483614121.88,2523,7.38,71656.0,-15.89,-27.55,-27.55,0,*53
1483614123.09,2524,7.38,71656.3,-15.91,-27.51,-27.55,0,*59
1483614124.3,2525,7.38,71656.8,-15.91,-27.89,-27.89,0,*5C
1483614125.53,2526,7.38,71658.0,-15.91,-27.35,-27.51,0,*5D
1483614126.79,2527,7.38,71662.8,-15.93,-27.71,-27.61,0,*5D
1483614128.06,2528,7.38,71658.8,-15.93,-27.45,-27.55,0,*52
1483614129.35,2529,7.38,71654.5,-15.93,-27.61,-27.61,0,*52
1483614130.59,2530,7.38,71658.0,-15.93,-27.77,-27.89,0,*5B
1483614131.89,2531,7.38,71656.8,-15.93,-27.61,-27.61,0,*5B
1483614133.13,2532,7.38,71656.3,-15.93,-27.89,-27.89,0,*58
1483614134.36,2533,7.38,71662.8,-15.91,-27.89,-27.83,0,*51
1483614135.59,2534,7.38,71662.3,-15.89,-27.89,-27.71,0,*52
1483614136.84,2535,7.38,71656.8,-15.91,-28.05,-27.89,0,*56
1483614138.07,2536,7.38,71662.8,-15.93,-27.77,-27.71,0,*5A
1483614139.31,2537,7.38,71664.0,-15.93,-27.93,-27.77,0,*57
1483614140.55,2538,7.38,71668.0,-15.93,-27.55,-27.55,0,*52
1483614141.81,2539,7.38,71664.8,-15.93,-27.71,-27.61,0,*52
1483614143.1,2540,7.31,71650.5,-15.93,-27.61,-27.45,0,*5B
1483614144.36,2541,7.38,71656.3,-15.93,-27.55,-27.45,0,*5D
1483614145.62,2542,7.38,71662.8,-15.93,-27.55,-27.39,0,*55
1483614146.86,2543,7.38,71654.5,-15.91,-27.99,-27.51,0,*58
1483614148.1,2544,7.38,71652.8,-15.91,-28.21,-27.71,0,*51
1483614149.36,2545,7.38,71656.0,-15.91,-28.25,-27.83,0,*59
1483614150.6,2546,7.38,71656.8,-15.91,-28.05,-27.67,0,*52
1483614151.83,2547,7.38,71654.3,-15.91,-27.83,-27.51,0,*57
1483614153.04,2548,7.38,71654.3,-15.91,-27.89,-27.51,0,*52
1483614154.28,2549,7.38,71652.0,-15.91,-28.05,-27.55,0,*5C
1483614155.52,2550,7.38,71656.8,-15.91,-28.09,-27.71,0,*5E
1483614156.78,2551,7.38,71656.8,-15.89,-27.99,-27.71,0,*50
1483614158.01,2552,7.31,71652.0,-15.93,-27.93,-27.71,0,*52
1483614159.27,2553,7.38,71652.0,-15.93,-27.93,-27.45,0,*54
1483614160.51,2554,7.38,71656.5,-15.91,-27.99,-27.51,0,*5E
1483614161.75,2555,7.38,71668.3,-15.91,-28.05,-27.71,0,*57
1483614163.02,2556,7.38,71660.0,-15.91,-28.21,-27.99,0,*54
1483614164.23,2557,7.38,71660.0,-15.91,-28.37,-27.89,0,*53
1483614165.47,2558,7.38,71658.5,-15.91,-28.09,-27.55,0,*50
1483614166.71,2559,7.38,71660.0,-15.91,-28.21,-27.55,0,*5B
1483614167.94,2560,7.38,71664.0,-15.91,-27.89,-27.39,0,*56
1483614169.18,2561,7.38,71666.5,-15.91,-28.05,-27.51,0,*52
1483614170.42,2562,7.38,71664.5,-15.91,-28.05,-27.55,0,*55
1483614171.68,2563,7.38,71658.8,-15.91,-28.05,-27.39,0,*5E
1483614172.95,2564,7.38,71654.0,-15.91,-28.05,-27.39,0,*59
1483614174.19,2565,7.38,71654.3,-15.91,-28.25,-27.67,0,*51
1483614175.45,2566,7.38,71660.5,-15.89,-28.05,-27.55,0,*58
1483614176.69,2567,7.38,71654.3,-15.91,-27.89,-27.39,0,*51
1483614177.93,2568,7.38,71652.5,-15.91,-27.89,-27.35,0,*52
1483614179.21,2569,7.38,71652.8,-15.89,-27.83,-27.39,0,*5C
1483614180.44,2570,7.38,71652.0,-15.91,-27.89,-27.39,0,*57
1483614181.68,2571,7.38,71658.0,-15.91,-28.05,-27.51,0,*53
1483614182.92,2572,7.38,71656.3,-15.91,-27.89,-27.39,0,*55
1483614184.15,2573,7.38,71650.8,-15.91,-28.05,-27.51,0,*51
1483614185.42,2574,7.38,71662.3,-15.91,-28.25,-27.83,0,*5B
1483614186.64,2575,7.38,71656.3,-15.91,-28.37,-27.89,0,*53
1483614187.85,2576,7.38,71660.8,-15.91,-28.37,-27.67,0,*50
1483614189.12,2577,7.38,71652.0,-15.89,-28.21,-27.67,0,*5F
1483614190.38,2578,7.38,71654.5,-15.89,-28.25,-27.67,0,*54
1483614191.62,2579,7.38,71662.5,-15.91,-28.25,-27.71,0,*5B
1483614192.86,2580,7.38,71652.5,-15.91,-28.53,-28.21,0,*56
1483614194.15,2581,7.38,71652.0,-15.89,-28.43,-27.99,0,*53
1483614195.38,2582,7.38,71648.3,-15.91,-29.13,-28.69,0,*5D
1483614196.62,2583,7.38,71652.5,-15.91,-28.37,-27.83,0,*50
1483614197.83,2584,7.38,71654.3,-15.91,-28.37,-27.89,0,*5D
1483614199.1,2585,7.38,71656.0,-15.91,-28.59,-28.09,0,*53
1483614200.36,2586,7.38,71658.3,-15.91,-29.13,-28.59,0,*5A
1483614201.65,2587,7.38,71660.8,-15.93,-29.13,-28.59,0,*59
1483614202.89,2588,7.38,71644.3,-15.95,-28.97,-28.59,0,*5D
1483614204.15,2589,7.38,71658.8,-15.95,-29.17,-28.59,0,*55
1483614205.44,2590,7.38,71654.0,-15.93,-28.59,-28.05,0,*59
1483614206.71,2591,7.38,71654.3,-15.95,-28.59,-28.05,0,*5E
1483614207.94,2592,7.38,71650.8,-15.95,-28.43,-27.77,0,*5C
1483614209.18,2593,7.38,71656.0,-15.93,-28.31,-27.77,0,*5E
1483614210.47,2594,7.38,71654.3,-15.93,-28.25,-27.61,0,*5B
1483614211.73,2595,7.38,71656.8,-15.93,-28.31,-27.61,0,*5F
1483614213.02,2596,7.38,71656.8,-15.93,-28.09,-27.45,0,*51
1483614214.31,2597,7.38,71656.5,-15.93,-28.25,-27.61,0,*58
1483614215.52,2598,7.38,71644.0,-15.95,-28.31,-27.71,0,*55
1483614216.76,2599,7.38,71648.5,-15.93,-28.15,-27.71,0,*54
1483614218.02,2600,7.38,71656.3,-15.95,-28.09,-27.61,0,*5D
1483614219.26,2601,7.38,71648.8,-15.93,-27.89,-27.55,0,*5A
1483614220.55,2602,7.38,71656.3,-15.93,-28.09,-27.61,0,*59
1483614221.78,2603,7.38,71658.8,-15.95,-28.05,-27.55,0,*55
1483614223.0,2604,7.38,71656.8,-15.95,-28.15,-27.71,0,*55
1483614224.26,2605,7.38,71658.3,-15.95,-28.09,-27.61,0,*58
1483614225.55,2606,7.38,71662.3,-15.93,-28.05,-27.61,0,*51
1483614226.76,2607,7.38,71664.0,-15.95,-28.31,-27.89,0,*57
1483614228.05,2608,7.38,71666.3,-15.93,-28.43,-28.05,0,*50
1483614229.29,2609,7.38,71664.3,-15.95,-28.43,-27.93,0,*57
1483614230.49,2610,7.38,71670.0,-15.95,-28.31,-27.93,0,*5A
1483614231.78,2611,7.38,71664.5,-15.93,-28.79,-28.47,0,*57
1483614233.05,2612,7.38,71662.8,-15.95,-28.59,-28.05,0,*56
1483614234.32,2613,7.38,71658.3,-15.95,-28.25,-27.61,0,*51
1483614235.55,2614,7.38,71660.0,-15.95,-27.93,-27.39,0,*59
1483614236.77,2615,7.38,71666.5,-15.95,-27.93,-27.55,0,*52
1483614238.03,2616,7.38,71658.8,-15.95,-28.25,-27.61,0,*54
1483614239.27,2617,7.38,71658.8,-15.95,-28.09,-27.55,0,*5C
1483614240.51,2618,7.38,71660.8,-15.95,-28.15,-27.61,0,*59
1483614241.74,2619,7.38,71658.3,-15.93,-28.15,-27.71,0,*5F
1483614242.98,2620,7.38,71658.3,-15.93,-28.31,-27.77,0,*55
1483614244.21,2621,7.38,71656.0,-15.95,-28.43,-27.89,0,*56
1483614245.45,2622,7.38,71656.8,-15.95,-28.15,-27.61,0,*50
1483614246.73,2623,7.38,71660.8,-15.97,-27.99,-27.45,0,*5E
1483614247.97,2624,7.38,71658.8,-15.95,-27.89,-27.39,0,*51
1483614249.18,2625,7.38,71656.3,-15.95,-27.93,-27.55,0,*51
1483614250.42,2626,7.38,71658.8,-15.95,-28.05,-27.55,0,*52
1483614251.66,2627,7.38,71654.0,-15.93,-27.93,-27.55,0,*55
1483614252.92,2628,7.38,71656.8,-15.93,-28.25,-27.55,0,*58
1483614254.13,2629,7.38,71656.8,-15.95,-28.31,-27.55,0,*5A
1483614255.37,2630,7.38,71656.5,-15.95,-28.25,-27.71,0,*51
1483614256.61,2631,7.38,71656.8,-15.95,-28.47,-27.89,0,*53
1483614257.84,2632,7.38,71652.8,-15.93,-28.15,-27.55,0,*50
1483614259.1,2633,7.38,71658.3,-15.93,-28.09,-27.71,0,*5A
1483614260.34,2634,7.38,71654.0,-15.95,-28.15,-27.61,0,*57
1483614261.63,2635,7.38,71654.3,-15.93,-28.09,-27.61,0,*5D
1483614262.87,2636,7.38,71656.8,-15.95,-28.25,-27.89,0,*50
1483614264.11,2637,7.31,71648.3,-15.95,-27.93,-27.45,0,*53
1483614265.32,2638,7.38,71650.3,-15.95,-28.15,-27.55,0,*5C
1483614266.58,2639,7.38,71652.5,-15.95,-28.25,-27.61,0,*59
1483614267.85,2640,7.38,71646.3,-15.93,-27.77,-27.39,0,*54
1483614269.08,2641,7.38,71652.5,-15.95,-27.77,-27.39,0,*53
1483614270.3,2642,7.38,71648.3,-15.95,-27.93,-27.55,0,*50
1483614271.53,2643,7.38,71652.3,-15.95,-28.09,-27.55,0,*5D
1483614272.82,2644,7.38,71654.3,-15.93,-28.47,-28.05,0,*5C
1483614274.03,2645,7.38,71662.5,-15.95,-28.31,-27.71,0,*56
1483614275.32,2646,7.38,71652.5,-15.93,-28.63,-28.25,0,*5A
1483614276.59,2647,7.38,71654.5,-15.95,-28.59,-28.05,0,*56
1483614277.82,2648,7.38,71660.8,-15.95,-28.47,-27.89,0,*5D
1483614279.03,2649,7.38,71658.8,-15.95,-28.31,-27.71,0,*5A
1483614280.26,2650,7.38,71652.8,-15.95,-28.43,-27.77,0,*51
1483614281.53,2651,7.38,71652.5,-15.95,-28.75,-28.25,0,*5D
1483614282.79,2652,7.38,71658.8,-15.95,-28.79,-28.43,0,*52
1483614284.05,2653,7.38,71658.8,-15.97,-28.85,-28.47,0,*56
1483614285.31,2654,7.38,71658.5,-15.97,-28.69,-28.09,0,*59
1483614286.55,2655,7.38,71656.8,-15.97,-28.69,-28.31,0,*53
1483614287.82,2656,7.38,71654.5,-15.99,-28.79,-28.21,0,*5E
1483614289.03,2657,7.38,71658.5,-15.99,-28.97,-28.37,0,*58
1483614290.27,2658,7.38,71658.5,-15.97,-28.85,-28.37,0,*5A
1483614291.51,2659,7.38,71656.5,-15.99,-28.53,-27.83,0,*5E
1483614292.72,2660,7.38,71658.0,-15.99,-28.37,-27.77,0,*5D
1483614293.96,2661,7.38,71652.8,-15.99,-28.69,-27.99,0,*57
1483614295.18,2662,7.38,71652.3,-15.99,-28.85,-28.37,0,*5D
1483614296.47,2663,7.38,71654.5,-15.97,-29.01,-28.63,0,*5E
1483614297.71,2664,7.38,71658.8,-15.99,-28.69,-28.09,0,*54
1483614298.92,2665,7.38,71650.0,-15.99,-28.53,-27.93,0,*50
1483614300.19,2666,7.38,71656.0,-15.99,-28.63,-28.21,0,*56
1483614301.45,2667,7.38,71658.0,-16.01,-28.53,-27.83,0,*51
1483614302.66,2668,7.38,71654.3,-15.99,-28.37,-27.93,0,*5F
1483614303.93,2669,7.38,71658.0,-16.01,-28.69,-28.05,0,*57
1483614305.17,2670,7.38,71660.3,-16.01,-28.53,-27.89,0,*5D
1483614306.38,2671,7.38,71652.3,-15.99,-28.37,-27.77,0,*5D
1483614307.67,2672,7.38,71654.8,-16.01,-28.91,-28.25,0,*58
1483614308.96,2673,7.31,71656.8,-16.01,-28.59,-28.05,0,*5F
1483614310.2,2674,7.38,71658.3,-16.01,-28.37,-27.71,0,*5C
1483614311.44,2675,7.38,71662.5,-16.01,-28.53,-27.89,0,*58
1483614312.68,2676,7.38,71658.8,-16.01,-28.37,-27.71,0,*5E
1483614313.97,2677,7.38,71654.3,-16.01,-28.43,-27.83,0,*51
1483614315.23,2678,7.38,71652.0,-16.01,-28.43,-27.67,0,*54
1483614316.47,2679,7.38,71656.0,-16.01,-28.53,-27.89,0,*54
1483614317.71,2680,7.38,71652.3,-16.01,-28.37,-27.67,0,*50
1483614319.0,2681,7.38,71654.5,-16.01,-28.59,-27.99,0,*58
1483614320.28,2682,7.38,71658.0,-16.05,-28.75,-28.25,0,*59
1483614321.52,2683,7.38,71658.3,-16.01,-28.53,-27.89,0,*51
1483614322.76,2684,7.38,71662.8,-16.01,-28.69,-28.15,0,*55
1483614324.03,2685,7.38,71662.5,-16.01,-28.59,-28.15,0,*57
1483614325.27,2686,7.38,71664.0,-16.01,-28.53,-27.89,0,*54
1483614326.51,2687,7.38,71662.0,-16.01,-28.37,-27.67,0,*57
1483614327.78,2688,7.38,71668.8,-16.05,-28.85,-28.25,0,*5C
1483614329.01,2689,7.38,71668.0,-16.05,-28.53,-27.89,0,*5F
1483614330.27,2690,7.38,71668.3,-16.05,-28.43,-27.89,0,*56
1483614331.53,2691,7.38,71664.8,-16.05,-28.69,-28.05,0,*54
1483614332.82,2692,7.38,71668.0,-16.05,-28.59,-27.99,0,*5E
1483614334.08,2693,7.38,71666.3,-16.05,-28.25,-27.71,0,*52
1483614335.34,2694,7.38,71658.8,-16.01,-28.21,-27.55,0,*53
1483614336.58,2695,7.38,71656.8,-16.05,-28.37,-27.71,0,*57
1483614337.84,2696,7.38,71660.8,-16.05,-28.25,-27.71,0,*57
1483614339.1,2697,7.38,71664.0,-16.05,-27.89,-27.35,0,*5F
1483614340.35,2698,7.38,71658.8,-16.05,-27.89,-27.39,0,*5C
1483614341.58,2699,7.38,71658.0,-16.05,-28.15,-27.51,0,*59
1483614342.82,2700,7.38,71656.8,-16.05,-28.15,-27.67,0,*5D
1483614344.08,2701,7.38,71650.8,-16.05,-28.25,-27.67,0,*5F
1483614345.34,2702,7.38,71650.5,-16.05,-28.25,-27.71,0,*5B
1483614346.6,2703,7.38,71652.0,-16.05,-28.53,-27.83,0,*56
1483614347.84,2704,7.38,71652.3,-16.01,-28.37,-27.71,0,*5A
1483614349.07,2705,7.38,71654.3,-16.05,-28.37,-27.71,0,*5F
1483614350.34,2706,7.38,71656.5,-16.05,-28.53,-27.99,0,*58
1483614351.61,2707,7.38,71660.3,-16.01,-28.53,-27.99,0,*5D
1483614352.84,2708,7.38,71662.5,-16.05,-28.37,-27.67,0,*55
1483614354.08,2709,7.38,71660.5,-16.07,-28.43,-27.77,0,*54
1483614355.34,2710,7.38,71656.5,-16.05,-28.59,-27.89,0,*54
1483614356.6,2711,7.38,71662.3,-16.07,-29.13,-28.63,0,*53
1483614357.84,2712,7.38,71664.8,-16.07,-28.79,-28.31,0,*5A
1483614359.1,2713,7.31,71666.0,-16.07,-28.79,-28.47,0,*5A
1483614360.37,2714,7.38,71664.8,-16.07,-28.59,-28.21,0,*5F
1483614361.64,2715,7.38,71668.5,-16.09,-28.25,-27.55,0,*57
1483614362.92,2716,7.38,71668.5,-16.09,-28.05,-27.45,0,*57
1483614364.19,2717,7.38,71668.5,-16.07,-28.25,-27.61,0,*5C
1483614365.43,2718,7.38,71660.3,-16.07,-28.05,-27.55,0,*56
1483614366.66,2719,7.38,71668.0,-16.07,-28.47,-27.93,0,*5B
1483614367.92,2720,7.38,71664.3,-16.09,-28.21,-27.71,0,*53
1483614369.18,2721,7.38,71670.8,-16.09,-28.05,-27.55,0,*52
1483614370.42,2722,7.38,71668.0,-16.09,-27.89,-27.55,0,*5A
1483614371.65,2723,7.38,71666.0,-16.09,-27.93,-27.77,0,*50
1483614372.91,2724,7.38,71668.3,-16.09,-28.05,-27.93,0,*5D
1483614374.13,2725,7.38,71672.8,-16.07,-27.93,-27.71,0,*5E
1483614375.39,2726,7.31,71666.0,-16.09,-27.45,-27.29,0,*55
1483614376.65,2727,7.38,71670.3,-16.09,-27.77,-27.61,0,*59
1483614377.94,2728,7.38,71672.3,-16.09,-27.45,-27.39,0,*5A
1483614379.23,2729,7.38,71664.3,-16.09,-27.39,-27.23,0,*5B
1483614380.46,2730,7.38,71664.5,-16.07,-27.55,-27.39,0,*5C
1483614381.73,2731,7.38,71664.8,-16.09,-27.29,-27.23,0,*53
1483614383.01,2732,7.38,71666.5,-16.09,-27.23,-27.23,0,*5A
1483614384.25,2733,7.38,71664.0,-16.07,-27.55,-27.39,0,*5F
1483614385.49,2734,7.38,71664.8,-16.07,-27.39,-27.29,0,*53
1483614386.75,2735,7.38,71664.8,-16.07,-27.39,-27.23,0,*58
1483614387.99,2736,7.31,71666.3,-16.07,-27.29,-27.23,0,*5A
1483614389.23,2737,7.38,71662.8,-16.07,-27.39,-27.29,0,*50
1483614390.5,2738,7.38,71666.8,-16.07,-27.61,-27.45,0,*58
1483614391.76,2739,7.38,71666.0,-16.07,-27.39,-27.39,0,*5F
1483614393.0,2740,7.38,71668.5,-16.07,-27.61,-27.55,0,*56
1483614394.24,2741,7.38,71670.3,-16.07,-27.55,-27.39,0,*5A
1483614395.48,2742,7.38,71672.0,-16.07,-27.45,-27.29,0,*59
1483614396.72,2743,7.38,71668.0,-16.07,-27.55,-27.39,0,*58
1483614397.98,2744,7.38,71666.0,-16.07,-27.61,-27.45,0,*53
1483614399.22,2745,7.38,71658.8,-16.07,-28.05,-27.93,0,*54
1483614400.43,2746,7.38,71662.5,-16.07,-27.71,-27.71,0,*57
1483614401.64,2747,7.38,71656.3,-16.07,-27.71,-27.55,0,*50
1483614402.9,2748,7.38,71662.5,-16.09,-27.77,-27.45,0,*56
1483614404.13,2749,7.38,71650.3,-16.09,-28.31,-27.77,0,*5B
1483614405.37,2750,7.38,71648.0,-16.07,-27.61,-27.13,0,*55
1483614406.58,2751,7.38,71652.5,-16.07,-27.55,-27.07,0,*56
1483614407.82,2752,7.38,71670.0,-16.07,-27.71,-27.23,0,*55
1483614409.03,2753,7.38,71664.5,-16.07,-27.55,-27.13,0,*51
1483614410.27,2754,7.38,71658.0,-16.09,-27.55,-27.29,0,*51
1483614411.53,2755,7.38,71656.8,-16.07,-28.09,-27.61,0,*54
1483614412.76,2756,7.38,71654.5,-16.07,-27.89,-27.45,0,*56
1483614414.0,2757,7.38,71664.8,-16.07,-27.93,-27.39,0,*57
1483614415.27,2758,7.38,71656.5,-16.09,-28.25,-27.71,0,*58
1483614416.55,2759,7.38,71660.3,-16.09,-28.75,-28.09,0,*5C
1483614417.81,2760,7.38,71668.3,-16.07,-28.43,-27.61,0,*5C
1483614419.05,2761,7.38,71670.3,-16.07,-28.09,-27.55,0,*54
1483614420.33,2762,7.38,71674.8,-16.09,-28.09,-27.45,0,*58
1483614421.56,2763,7.38,71670.3,-16.07,-27.93,-27.45,0,*5B
1483614422.82,2764,7.38,71668.8,-16.09,-27.89,-27.23,0,*59
1483614424.05,2765,7.38,71668.8,-16.09,-27.77,-27.13,0,*5A
1483614425.27,2766,7.38,71670.5,-16.07,-27.93,-27.29,0,*54
1483614426.53,2767,7.38,71668.5,-16.09,-28.09,-27.55,0,*5C
1483614427.77,2768,7.38,71668.3,-16.07,-27.71,-27.23,0,*5C
1483614429.01,2769,7.38,71674.0,-16.09,-27.77,-27.29,0,*5F
1483614430.22,2770,7.38,71670.0,-16.07,-27.77,-27.07,0,*55
1483614431.45,2771,7.38,71678.0,-16.07,-27.89,-27.23,0,*53
1483614432.67,2772,7.38,71674.5,-16.07,-27.93,-27.29,0,*51
1483614433.91,2773,7.38,71670.0,-16.09,-27.71,-27.13,0,*5B
1483614435.12,2774,7.38,71670.5,-16.07,-27.89,-27.29,0,*5C
1483614436.35,2775,7.38,71672.8,-16.05,-27.71,-27.07,0,*54
1483614437.61,2776,7.31,71666.0,-16.05,-27.67,-27.19,0,*5F
1483614438.85,2777,7.31,71666.0,-16.07,-27.71,-27.23,0,*52
1483614440.11,2778,7.38,71664.0,-16.05,-27.71,-27.19,0,*56
1483614441.34,2779,7.38,71666.3,-16.05,-27.55,-27.07,0,*5E
1483614442.59,2780,7.38,71658.5,-16.05,-27.71,-27.19,0,*51
1483614443.83,2781,7.38,71666.5,-16.05,-27.55,-27.07,0,*59
1483614445.06,2782,7.38,71666.3,-16.05,-27.51,-27.03,0,*5A
1483614446.34,2783,7.38,71662.8,-16.05,-27.83,-27.35,0,*51
1483614447.6,2784,7.38,71664.3,-16.05,-27.89,-27.39,0,*50
1483614448.85,2785,7.38,71670.5,-16.05,-27.71,-27.19,0,*54
1483614450.11,2786,7.38,71668.0,-16.05,-27.71,-27.19,0,*57
1483614451.35,2787,7.38,71668.0,-16.05,-27.67,-27.07,0,*5E
1483614452.63,2788,7.38,71666.3,-16.05,-27.39,-26.97,0,*52
1483614453.86,2789,7.38,71664.0,-16.05,-27.55,-27.03,0,*55
1483614455.1,2790,7.38,71666.0,-16.01,-27.89,-27.51,0,*5F
1483614456.36,2791,7.38,71668.8,-16.01,-27.89,-27.23,0,*5B
1483614457.61,2792,7.38,71662.8,-16.05,-27.71,-27.19,0,*52
1483614458.89,2793,7.38,71664.5,-16.05,-27.83,-27.23,0,*57
1483614460.18,2794,7.38,71666.5,-16.01,-27.39,-26.97,0,*5B
1483614461.44,2795,7.38,71664.5,-16.05,-27.71,-27.39,0,*57
1483614462.67,2796,7.38,71668.0,-16.01,-27.55,-27.07,0,*5B
1483614463.93,2797,7.31,71664.3,-16.05,-27.39,-27.03,0,*50
1483614465.16,2798,7.38,71666.0,-16.05,-27.89,-27.51,0,*53
1483614466.45,2799,7.38,71670.8,-16.05,-27.39,-26.97,0,*52
1483614467.7,2800,7.38,71670.8,-16.05,-27.83,-27.51,0,*57
1483614468.99,2801,7.38,71674.0,-16.05,-28.25,-27.83,0,*5A
1483614470.25,2802,7.38,71668.8,-16.05,-28.25,-27.89,0,*53
1483614471.48,2803,7.31,71664.5,-16.05,-28.15,-27.67,0,*51
1483614472.73,2804,7.31,71662.0,-16.05,-27.83,-27.51,0,*53
1483614473.97,2805,7.38,71668.8,-16.07,-27.77,-27.45,0,*5E
1483614475.2,2806,7.38,71668.8,-16.07,-27.71,-27.23,0,*5B
1483614476.47,2807,7.38,71670.3,-16.09,-27.61,-27.13,0,*56
1483614477.68,2808,7.38,71664.0,-16.07,-27.55,-27.13,0,*50
1483614478.89,2809,7.38,71660.5,-16.07,-27.55,-27.07,0,*54
1483614480.1,2810,7.38,71664.8,-16.07,-27.55,-27.07,0,*5C
1483614481.34,2811,7.38,71666.8,-16.07,-27.39,-27.03,0,*53
1483614482.58,2812,7.38,71668.0,-16.07,-27.39,-26.87,0,*5D
1483614483.82,2813,7.38,71674.0,-16.07,-27.61,-27.29,0,*54
1483614485.03,2814,7.38,71668.3,-16.07,-27.55,-27.13,0,*5D
1483614486.29,2815,7.38,71664.3,-16.05,-27.55,-27.19,0,*54
1483614487.52,2816,7.38,71656.0,-16.05,-27.71,-27.51,0,*5D
1483614488.78,2817,7.38,71670.8,-16.05,-27.89,-27.35,0,*59
1483614490.04,2818,7.38,71656.3,-16.05,-27.55,-27.19,0,*59
1483614491.28,2819,7.31,71656.0,-16.07,-27.61,-27.55,0,*55
1483614492.54,2820,7.38,71664.3,-16.05,-27.99,-27.71,0,*5C
1483614493.77,2821,7.38,71672.0,-16.05,-27.71,-27.55,0,*5D
1483614495.0,2822,7.38,71666.0,-16.05,-27.71,-27.55,0,*5E
1483614496.21,2823,7.38,71662.5,-16.07,-27.77,-27.55,0,*5B
1483614497.5,2824,7.38,71656.8,-16.09,-27.61,-27.39,0,*5F
1483614498.77,2825,7.38,71662.0,-16.07,-27.61,-27.39,0,*50
1483614500.05,2826,7.38,71664.3,-16.05,-27.39,-27.19,0,*5E
1483614501.31,2827,7.38,71660.3,-16.05,-28.15,-27.83,0,*5D
1483614502.57,2828,7.38,71662.0,-16.05,-28.25,-27.89,0,*5B
1483614503.81,2829,7.38,71656.3,-16.07,-28.25,-27.77,0,*59
1483614505.05,2830,7.38,71658.3,-16.07,-27.89,-27.39,0,*52
1483614506.31,2831,7.38,71660.3,-16.09,-27.61,-27.13,0,*53